McCook, NE

12:39 AM CDT on April 23, 2017 (GMT -0500)
McCook Municipal

Weather History for KMCK - June, 2013

Change the Weather History Date:

Sunday, June 30, 2013

  Actual Average Record
Temperature  
Mean Temperature 69 °F 75 °F  
Max Temperature 84 °F 89 °F 107 °F (1968)
Min Temperature 54 °F 60 °F 44 °F (1918)
Cooling Degree Days 4    
Growing Degree Days 19 (Base 50)    
Moisture  
Dew Point 50 °F    
Average Humidity 51    
Maximum Humidity 83    
Minimum Humidity 27    
Precipitation  
Precipitation 0.00 in 0.10 in 1.40 in (1988)
Month to date precipitation 1.10 3.38  
Year to date precipitation 5.99 11.32  
Sea Level Pressure  
Sea Level Pressure 30.09 in    
Wind  
Wind Speed 6 mph (NNE)    
Max Wind Speed 13 mph    
Max Gust Speed 20 mph    
Visibility 10 miles    
Events      
T = Trace of Precipitation, MM = Missing Value Source: NWS Daily Summary

Daily Weather History Graph

Daily Weather History Graph

Search for Another Location

Airport or City:

Trip Planner

Search our weather history database for the weather conditions in past years. The results will help you decide how hot, cold, wet, or windy it might be!

Date:

Astronomy

Jun. 30, 2013 Rise Set
Actual Time 6:16 AM CDT 9:15 PM CDT
Civil Twilight 5:43 AM CDT 9:48 PM CDT
Nautical Twilight 5:01 AM CDT 10:30 PM CDT
Astronomical Twilight 4:12 AM CDT 11:18 PM CDT
Moon 1:16 AM CDT (6/30) 2:32 PM CDT (6/30)
Length of Visible Light 16h 05m
Length of Day
14h 59m
Last Quarter, 45% of the Moon is Illuminated
Jun 30
Last Quarter
Jul 8
New
Jul 15
First Quarter
Jul 22
Full
Jul 29
Last Quarter

Hourly Weather History & Observations

Time (CDT) Temp. Dew Point Humidity Pressure Visibility Wind Dir Wind Speed Gust Speed Precip Events Conditions
12:53 AM 64.0 °F 46.9 °F 54% 30.05 in 10.0 mi Calm Calm - N/A   Clear
1:53 AM 61.0 °F 48.0 °F 62% 30.06 in 10.0 mi WSW 5.8 mph - N/A   Clear
2:53 AM 59.0 °F 48.9 °F 69% 30.06 in 10.0 mi North 4.6 mph - N/A   Clear
3:53 AM 59.0 °F 48.9 °F 69% 30.06 in 10.0 mi NW 3.5 mph - N/A   Clear
4:53 AM 57.0 °F 50.0 °F 77% 30.07 in 10.0 mi WNW 5.8 mph - N/A   Clear
5:53 AM 54.0 °F 48.9 °F 83% 30.09 in 10.0 mi West 4.6 mph - N/A   Clear
6:53 AM 57.0 °F 51.1 °F 81% 30.11 in 10.0 mi West 3.5 mph - N/A   Clear
7:53 AM 61.0 °F 52.0 °F 72% 30.13 in 10.0 mi WNW 4.6 mph - N/A   Clear
8:53 AM 69.1 °F 54.0 °F 58% 30.13 in 10.0 mi Variable 3.5 mph - N/A   Clear
9:53 AM 72.0 °F 54.0 °F 53% 30.13 in 10.0 mi NE 8.1 mph - N/A   Clear
10:53 AM 75.0 °F 52.0 °F 44% 30.12 in 10.0 mi Variable 4.6 mph - N/A   Clear
11:53 AM 78.1 °F 52.0 °F 40% 30.10 in 10.0 mi NE 9.2 mph 19.6 mph N/A   Clear
12:53 PM 81.0 °F 50.0 °F 34% 30.09 in 10.0 mi NE 10.4 mph 19.6 mph N/A   Partly Cloudy
1:53 PM 81.0 °F 51.1 °F 35% 30.09 in 10.0 mi NE 10.4 mph - N/A   Partly Cloudy
2:53 PM 82.9 °F 48.9 °F 31% 30.08 in 10.0 mi NE 10.4 mph 18.4 mph N/A   Partly Cloudy
3:53 PM 82.9 °F 48.9 °F 31% 30.07 in 10.0 mi Variable 4.6 mph - N/A   Scattered Clouds
4:53 PM 84.0 °F 46.9 °F 27% 30.07 in 10.0 mi NNE 12.7 mph 17.3 mph N/A   Partly Cloudy
5:53 PM 82.0 °F 46.9 °F 29% 30.07 in 10.0 mi ENE 11.5 mph - N/A   Scattered Clouds
6:53 PM 80.1 °F 46.0 °F 30% 30.06 in 10.0 mi NE 11.5 mph 17.3 mph N/A   Partly Cloudy
7:53 PM 80.1 °F 48.0 °F 32% 30.06 in 10.0 mi ENE 12.7 mph - N/A   Clear
8:53 PM 75.0 °F 48.0 °F 38% 30.08 in 10.0 mi ENE 9.2 mph - N/A   Clear
9:53 PM 70.0 °F 51.1 °F 51% 30.10 in 10.0 mi East 8.1 mph - N/A   Clear
10:53 PM 64.9 °F 52.0 °F 63% 30.13 in 8.0 mi ENE 5.8 mph - N/A   Clear
11:53 PM 64.9 °F 52.0 °F 63% 30.14 in 10.0 mi East 10.4 mph - N/A   Clear